マクノート彗星

260P/McNaught (2012)

English version
Home page
Updated on September 14, 2013

---------------------------------------------------------------------

・ プロフィール

符号 260P/2012 K2
検出日 2012年5月18日
検出光度 17.5等
検出者 Martin Masek (near Malargue, Argentina)

・ 写真集

・ 軌道要素

Epoch 2012 Sept. 30.0 TT = JDT 2456200.5
T 2012 Sept. 12.52206 TT                                MPC
q   1.4971342            (2000.0)            P               Q
n   0.13944700     Peri.   15.69470     +0.98966679     -0.13828074
a   3.6829565      Node   351.96192     +0.08384969     +0.77267078
e   0.5934966      Incl.   15.73558     +0.11631367     +0.61956300
P   7.07
From 3203 observations 2005 May 20-2013 Jan. 22, mean residual 0".4.

・ 星図

・ 光度変化

        m1 = 9.0 + 5 logΔ + 25.0 log r(t - 15)

---------------------------------------------------------------------

軌道要素はM.P.E.C. 2013-B90に掲載されたものです。
星図はステラナビゲータ Ver.8 (アストロアーツ) で作成したものです。
光度グラフはComet for Windowsで作成したものです。

---------------------------------------------------------------------

Copyright(C) Seiichi Yoshida (comet@aerith.net). All rights reserved.